• In Czech Republic
  • List of Countries
  • For 7 days
  • Water Temperature
  • Satellite Maps
  • Weather Map
  • Weather Widgets
  • user-avatar
    Login

    Hourly Weather Pyl'nyanka

    Today, 21 June, Thursday

    Time Temperature Precipitation Wind Pressure Humidity
    00:00 +18°C° 0 mm 2 mps 751 mmHg 89%
    01:00 +18°C° 0 mm 2 mps 751 mmHg 89%
    02:00 +18°C° 0 mm 1 mps 751 mmHg 89%
    03:00 +19°C° 0 mm 1 mps 751 mmHg 88%
    04:00 +19°C° 0 mm 1 mps 751 mmHg 86%
    05:00 +20°C° 0 mm 1 mps 751 mmHg 85%
    06:00 +21°C° 0 mm 1 mps 751 mmHg 78%
    07:00 +23°C° 0 mm 1 mps 751 mmHg 72%
    08:00 +25°C° 0 mm 1 mps 751 mmHg 63%
    09:00 +26°C° 0 mm 1 mps 751 mmHg 59%
    10:00 +26°C° 0 mm 2 mps 751 mmHg 55%
    11:00 +27°C° 0 mm 2 mps 751 mmHg 51%
    12:00 +28°C° 0 mm 2 mps 751 mmHg 50%
    13:00 +28°C° 0 mm 2 mps 751 mmHg 49%
    14:00 +29°C° 0 mm 2 mps 751 mmHg 48%
    15:00 +29°C° 0 mm 1 mps 750 mmHg 49%
    16:00 +29°C° 0 mm 1 mps 750 mmHg 50%
    17:00 +29°C° 0 mm 1 mps 750 mmHg 51%
    18:00 +27°C° 0 mm 1 mps 749 mmHg 56%
    19:00 +23°C° 0 mm 0 mps 749 mmHg 61%
    20:00 +21°C° 0 mm 0 mps 749 mmHg 66%
    21:00 +23°C° 0 mm 1 mps 749 mmHg 67%
    22:00 +22°C° 0 mm 1 mps 749 mmHg 69%
    23:00 +21°C° 0 mm 1 mps 749 mmHg 71%

    Tomorrow, 22 June, Friday

    Time Temperature Precipitation Wind Pressure Humidity
    00:00 +20°C° 0 mm 2 mps 749 mmHg 73%
    01:00 +19°C° 0 mm 2 mps 749 mmHg 74%
    02:00 +19°C° 0 mm 2 mps 749 mmHg 76%
    03:00 +19°C° 0 mm 2 mps 749 mmHg 77%
    04:00 +19°C° 0 mm 3 mps 748 mmHg 79%
    05:00 +19°C° 0 mm 3 mps 748 mmHg 80%
    06:00 +21°C° 0 mm 3 mps 748 mmHg 75%
    07:00 +24°C° 0 mm 3 mps 748 mmHg 70%
    08:00 +26°C° 0 mm 4 mps 748 mmHg 65%
    09:00 +27°C° 0 mm 4 mps 748 mmHg 61%
    10:00 +28°C° 0 mm 4 mps 748 mmHg 57%
    11:00 +29°C° 0 mm 4 mps 748 mmHg 53%
    12:00 +30°C° 0 mm 4 mps 747 mmHg 52%
    13:00 +30°C° 0 mm 4 mps 747 mmHg 51%
    14:00 +30°C° 0 mm 4 mps 747 mmHg 50%
    15:00 +30°C° 0 mm 3 mps 746 mmHg 53%
    16:00 +30°C° 0 mm 3 mps 746 mmHg 57%
    17:00 +30°C° 0 mm 2 mps 746 mmHg 60%
    18:00 +28°C° 0 mm 2 mps 746 mmHg 63%
    19:00 +27°C° 0 mm 2 mps 746 mmHg 65%
    20:00 +26°C° 0 mm 2 mps 746 mmHg 67%
    21:00 +25°C° 0 mm 2 mps 746 mmHg 67%
    22:00 +25°C° 0 mm 3 mps 745 mmHg 66%
    23:00 +24°C° 0 mm 3 mps 745 mmHg 66%

    Day after tomorrow, 23 June, Saturday

    Time Temperature Precipitation Wind Pressure Humidity
    00:00 +24°C° 0 mm 3 mps 745 mmHg 66%
    01:00 +22°C° 0 mm 3 mps 745 mmHg 67%
    02:00 +21°C° 0 mm 4 mps 745 mmHg 67%
    03:00 +21°C° 0.1 mm 3 mps 745 mmHg 69%
    04:00 +21°C° 0.1 mm 3 mps 745 mmHg 72%
    05:00 +21°C° 0.1 mm 3 mps 744 mmHg 74%
    06:00 +23°C° 0.2 mm 2 mps 744 mmHg 74%
    07:00 +23°C° 0.2 mm 2 mps 744 mmHg 74%
    08:00 +24°C° 0.2 mm 2 mps 744 mmHg 74%
    09:00 +25°C° 0.3 mm 3 mps 744 mmHg 71%
    10:00 +26°C° 0.3 mm 3 mps 743 mmHg 68%
    11:00 +27°C° 0.3 mm 4 mps 743 mmHg 65%
    12:00 +26°C° 0.9 mm 3 mps 743 mmHg 70%
    13:00 +25°C° 0.9 mm 3 mps 743 mmHg 75%
    14:00 +24°C° 0.9 mm 2 mps 742 mmHg 80%
    15:00 +23°C° 1.6 mm 2 mps 742 mmHg 83%
    16:00 +23°C° 1.6 mm 2 mps 742 mmHg 86%
    17:00 +23°C° 1.6 mm 2 mps 742 mmHg 89%
    18:00 +21°C° 0.9 mm 2 mps 742 mmHg 91%
    19:00 +20°C° 0.9 mm 2 mps 742 mmHg 92%
    20:00 +20°C° 0.9 mm 2 mps 743 mmHg 94%
    21:00 +19°C° 0 mm 2 mps 743 mmHg 95%
    22:00 +18°C° 0 mm 3 mps 743 mmHg 95%
    23:00 +17°C° 0 mm 3 mps 743 mmHg 96%

    24 June, Sunday

    Time Temperature Precipitation Wind Pressure Humidity
    00:00 +15°C° 0 mm 4 mps 744 mmHg 95%
    01:00 +14°C° 0 mm 5 mps 744 mmHg 94%
    02:00 +13°C° 0 mm 6 mps 745 mmHg 93%
    03:00 +13°C° 0 mm 5 mps 745 mmHg 92%
    04:00 +12°C° 0 mm 5 mps 746 mmHg 91%
    05:00 +10°C° 0 mm 5 mps 746 mmHg 91%
    06:00 +13°C° 0 mm 5 mps 747 mmHg 86%
    07:00 +14°C° 0 mm 5 mps 748 mmHg 81%
    08:00 +15°C° 0 mm 4 mps 748 mmHg 76%
    09:00 +17°C° 0 mm 4 mps 748 mmHg 70%
    10:00 +19°C° 0 mm 4 mps 749 mmHg 64%
    11:00 +20°C° 0 mm 4 mps 749 mmHg 58%
    12:00 +21°C° 0 mm 4 mps 749 mmHg 57%
    13:00 +21°C° 0 mm 4 mps 749 mmHg 56%
    14:00 +22°C° 0 mm 3 mps 750 mmHg 54%
    15:00 +22°C° 0 mm 3 mps 750 mmHg 55%
    16:00 +22°C° 0 mm 3 mps 750 mmHg 57%
    17:00 +23°C° 0 mm 2 mps 750 mmHg 58%
    18:00 +20°C° 0 mm 2 mps 751 mmHg 62%
    19:00 +19°C° 0 mm 2 mps 751 mmHg 66%
    20:00 +19°C° 0 mm 1 mps 751 mmHg 70%
    21:00 +18°C° 0 mm 1 mps 751 mmHg 72%
    22:00 +16°C° 0 mm 1 mps 752 mmHg 74%
    23:00 +15°C° 0 mm 1 mps 752 mmHg 77%

    25 June, Monday

    Time Temperature Precipitation Wind Pressure Humidity
    00:00 +15°C° 0 mm 1 mps 752 mmHg 80%
    01:00 +14°C° 0 mm 1 mps 752 mmHg 83%
    02:00 +13°C° 0 mm 1 mps 752 mmHg 86%
    03:00 +14°C° 0 mm 1 mps 753 mmHg 85%
    04:00 +15°C° 0 mm 1 mps 753 mmHg 84%
    05:00 +14°C° 0 mm 0 mps 753 mmHg 83%
    06:00 +16°C° 0 mm 0 mps 753 mmHg 77%
    07:00 +20°C° 0 mm 1 mps 753 mmHg 71%
    08:00 +21°C° 0 mm 1 mps 753 mmHg 64%
    09:00 +22°C° 0 mm 1 mps 753 mmHg 60%
    10:00 +23°C° 0 mm 1 mps 753 mmHg 56%
    11:00 +24°C° 0 mm 1 mps 753 mmHg 51%
    12:00 +25°C° 0 mm 1 mps 753 mmHg 50%
    13:00 +25°C° 0 mm 1 mps 753 mmHg 48%
    14:00 +26°C° 0 mm 1 mps 753 mmHg 47%
    15:00 +26°C° 0 mm 1 mps 753 mmHg 49%
    16:00 +25°C° 0 mm 1 mps 753 mmHg 51%
    17:00 +25°C° 0 mm 1 mps 753 mmHg 52%
    18:00 +24°C° 0 mm 1 mps 753 mmHg 57%
    19:00 +22°C° 0 mm 1 mps 753 mmHg 62%
    20:00 +20°C° 0 mm 1 mps 753 mmHg 67%
    21:00 +18°C° 0 mm 2 mps 754 mmHg 69%
    22:00 +18°C° 0 mm 2 mps 754 mmHg 72%
    23:00 +17°C° 0 mm 2 mps 754 mmHg 74%

    26 June, Tuesday

    Time Temperature Precipitation Wind Pressure Humidity
    00:00 +17°C° 0 mm 2 mps 754 mmHg 76%
    01:00 +16°C° 0 mm 2 mps 754 mmHg 77%
    02:00 +16°C° 0 mm 2 mps 753 mmHg 79%
    03:00 +16°C° 0 mm 2 mps 754 mmHg 80%
    04:00 +16°C° 0 mm 2 mps 754 mmHg 81%
    05:00 +16°C° 0 mm 2 mps 754 mmHg 82%
    06:00 +18°C° 0 mm 3 mps 754 mmHg 76%
    07:00 +20°C° 0 mm 3 mps 754 mmHg 71%
    08:00 +22°C° 0 mm 4 mps 754 mmHg 66%
    09:00 +23°C° 0 mm 4 mps 753 mmHg 61%
    10:00 +25°C° 0 mm 4 mps 753 mmHg 57%
    11:00 +26°C° 0 mm 4 mps 753 mmHg 53%
    12:00 +27°C° 0 mm 4 mps 753 mmHg 52%
    13:00 +27°C° 0 mm 4 mps 752 mmHg 52%
    14:00 +28°C° 0 mm 4 mps 752 mmHg 51%
    15:00 +27°C° 0 mm 4 mps 752 mmHg 54%
    16:00 +27°C° 0 mm 4 mps 752 mmHg 58%
    17:00 +27°C° 0 mm 4 mps 752 mmHg 61%
    18:00 +25°C° 0 mm 4 mps 751 mmHg 67%
    19:00 +23°C° 0 mm 4 mps 751 mmHg 73%
    20:00 +21°C° 0 mm 4 mps 751 mmHg 79%
    21:00 +20°C° 0 mm 4 mps 751 mmHg 81%
    22:00 +20°C° 0 mm 4 mps 751 mmHg 83%
    23:00 +19°C° 0 mm 4 mps 751 mmHg 85%
    Show more